Home > Weather > Poitiers > Past weeks

Flag for France Past Weather in Poitiers, Poitou-Charentes, France — Yesterday and Last 2 Weeks

Now
55 °F

Overcast.


Feels Like: 54 °F
Forecast: 55 / 63 °F
Wind: 7 mph from West

Location: Poitiers Airport

Current Time: May 31, 2016 at 12:09:57 PM

Latest Report: May 31, 2016 at 11:30 AM


Visibility: N/A

Pressure: 29.95 "Hg

Humidity: 94%

Dew Point: 54 °F

Location of PoitiersLocation

Past Weather in Poitiers — Graph

°F

Poitiers Temperature Yesterday

Maximum temperature yesterday: 61 °F (at 2:00 PM)
Minimum temperature yesterday: 55 °F (at 3:30 AM)
Average temperature yesterday: 58 °F

High & Low Weather Summary for the Past Weeks

 TemperatureHumidityPressure
High79 °F (May 21, 5:00 PM)100% (May 17, 3:30 AM)30.24 "Hg (May 17, 3:30 AM)
Low39 °F (May 24, 5:30 AM)42% (May 16, 1:30 PM)29.74 "Hg (May 29, 5:30 AM)
Average58 °F82%29.96 "Hg
* Reported May 16 10:00 AM — May 31 10:30 AM, Poitiers, Weather by CustomWeather, © 2016

Note: Actual official high and low records may vary slightly from our data, if they occured in-between our weather recording intervals... More about our weather records

Advertising

Poitiers Weather History for the Previous 24 Hours

Scroll right to see more
 ConditionsComfort  
Time TempWeatherWind HumidityBarometerVisibility
10:30 AM
Tue, May 31
55 °FOvercast.12 mph88%29.95 "HgN/A
10:00 AM55 °FMostly cloudy.9 mph94%29.95 "HgN/A
9:30 AM55 °FBroken clouds.9 mph88%29.95 "HgN/A
9:00 AM54 °FMostly cloudy.13 mph100%29.95 "Hg6 mi
8:30 AM54 °FLight rain. Broken clouds.12 mph94%29.95 "Hg4 mi
8:00 AM54 °FRain. Fog.10 mph100%29.95 "Hg3 mi
7:30 AM54 °FRain. Fog.12 mph94%29.95 "Hg2 mi
7:00 AM54 °FLight rain. Fog.9 mph94%29.95 "Hg3 mi
6:30 AM54 °FLight rain. Fog.9 mph100%29.95 "Hg3 mi
6:00 AM54 °FRain. Fog.9 mph100%29.95 "Hg3 mi
5:30 AM54 °FRain. Fog.9 mph94%29.95 "Hg3 mi
5:00 AM54 °FLight rain. Overcast.8 mph94%29.98 "Hg4 mi
4:30 AM54 °FLight rain. Mostly cloudy.8 mph94%29.98 "HgN/A
4:00 AM55 °FLight rain. Clear.7 mph88%29.95 "HgN/A
3:30 AM55 °FLight rain. Clear.9 mph88%29.98 "HgN/A
3:00 AM55 °FClear.8 mph88%29.98 "Hg10 mi
2:00 AM55 °FClear.7 mph88%29.98 "Hg10 mi
1:30 AM55 °FClear.6 mph88%29.98 "Hg10 mi
1:00 AM55 °FClear.6 mph88%29.98 "Hg10 mi
12:30 AM55 °FOvercast.3 mph94%29.98 "HgN/A
12:00 AM55 °FOvercast.3 mph94%30.01 "HgN/A
11:30 PM
Mon, May 30
55 °FMostly cloudy.5 mph94%29.98 "HgN/A
11:00 PM57 °FMostly cloudy.5 mph88%29.98 "HgN/A
10:30 PM59 °FMostly cloudy.6 mph88%29.98 "HgN/A
10:00 PM59 °FMostly cloudy.8 mph88%29.98 "HgN/A
9:30 PM59 °FSunny.3 mph94%29.95 "Hg10 mi
9:00 PM61 °FFog.2 mph94%29.95 "Hg3 mi
8:30 PM61 °FCool.2 mph94%29.95 "Hg4 mi
8:00 PM61 °FCool.2 mph94%29.95 "Hg5 mi
7:30 PM59 °FMore clouds than sun.2 mph100%29.95 "Hg4 mi
7:00 PM59 °FRain. Fog.5 mph94%29.95 "Hg1 mi
6:30 PM59 °FRain. Fog.2 mph94%29.95 "Hg3 mi
6:00 PM61 °FLight rain. Cloudy.2 mph88%29.95 "Hg4 mi
5:30 PM61 °FLight rain. Broken clouds.3 mph88%29.95 "HgN/A
5:00 PM61 °FPartly sunny.5 mph83%29.95 "HgN/A
4:30 PM61 °FPartly sunny.5 mph83%29.95 "HgN/A
4:00 PM59 °FOvercast.8 mph88%29.95 "HgN/A
3:30 PM59 °FOvercast.9 mph88%29.95 "HgN/A
3:00 PM61 °FMore clouds than sun.7 mph83%29.92 "HgN/A
2:30 PM61 °FMostly cloudy.6 mph83%29.92 "HgN/A
2:00 PM61 °FMostly cloudy.7 mph83%29.92 "HgN/A
1:30 PM59 °FMostly cloudy.6 mph88%29.92 "HgN/A
1:00 PM59 °FMostly cloudy.8 mph88%29.92 "HgN/A
12:30 PM57 °FLow clouds.7 mph94%29.92 "Hg4 mi
12:00 PM59 °FMostly cloudy.7 mph88%29.92 "Hg5 mi
Weather by CustomWeather, © 2016

See weather overviewHow to use our weather pages